Tracking 20083 objects as of 12-Dec-2019
HD Live streaming from Space Station
objects crossing your sky now

FENGYUN 1C DEB

Track FENGYUN 1C DEB now!
10-day predictions


NORAD ID: 37449
Int'l Code: 1999-025EHT
Perigee: 517.5 km
Apogee: 724.7 km
Inclination: 98.8 °
Period: 97.0 minutes
Semi major axis: 6992 km
RCS: 0.0081 m2 (small)
Launch date: May 10, 1999
Source: People's Republic of China (PRC)
Launch site: Taiyaun Space Center, China (TSC)

Note: This is SATELLITE DEBRIS
aabbcc
Your satellite tracking list
Your tracking list is empty




NASA's NSSDC Master Catalog

Two Line Element Set (TLE):
1 37449U 99025EHT 19345.54637313 +.00000695 +00000-0 +74681-4 0  9996
2 37449 098.8281 078.0024 0148195 090.9313 270.8882 14.84873451550638
Source of the keplerian elements: AFSPC